Regional Weather Roundup
Issued by NWS

Home | Current Version | Previous Version | Text Only | Print | Product List | Glossary On
Versions: 1 2 3 4 5 6 7 8 9 10 11 12 13 14 15 16 17 18 19 20 21 22 23 24 25 26 27 28 29 30 31 32 33 34 35 36 37 38 39 40 41 42 43 44 45 46 47 48 49 50
000
ASCA44 KEWX 020620
RWRMX

LATIN AMERICA AND CARIBBEAN REGIONAL WEATHER ROUNDUP
NATIONAL WEATHER SERVICE AUSTIN/SAN ANTONIO TX
100 AM CDT TUE SEP 02 2014

NOTE: "FAIR" INDICATED FEW OR NO CLOUDS BELOW 12,000 FEET WITH NO
SIGNIFICANT WEATHER AND/OR OBSTRUCTIONS TO VISIBILITY.

BAJA CALIFORNIA

CITY           SKY/WX    TMP DP  RH WIND       PRES   REMARKS
LA PAZ           N/A    N/A N/A N/A MISG        N/A
TIJUANA        CLEAR     66  59  77 N3        29.87R

NORTHWESTERN MEXICO

CITY           SKY/WX    TMP DP  RH WIND       PRES   REMARKS
CULIACAN       CLOUDY    81  73  78 CALM      29.82F

NORTHEASTERN MEXICO

CITY           SKY/WX    TMP DP  RH WIND       PRES   REMARKS
MONTERREY      MOCLDY    81  70  69 E12       29.91F
REYNOSA        PTCLDY    79  73  83 SE12      29.89S
CD. VICTORIA   PTCLDY    81  70  69 N3        29.92S

WESTERN MEXICO

CITY           SKY/WX    TMP DP  RH WIND       PRES   REMARKS
DEL BAJIO      MOCLDY    61  59  94 CALM      30.28R
GUADALAJARA    MOCLDY    63  59  88 CALM      30.14S
MAZATLAN       CLOUDY    79  75  89 CALM      29.82R THUNDER
P. VALLARTA    CLOUDY    77  73  88 CALM      29.83S
ZACATECAS      MOCLDY    66  46  48 S9        30.24S

CENTRAL MEXICO

CITY           SKY/WX    TMP DP  RH WIND       PRES   REMARKS
MEXICO CITY    CLOUDY    59  54  82 S6        30.33S
MORELIA        MOCLDY    61  59  94 CALM      30.23F
QUERETARO      MOCLDY    61  55  82 CALM      30.29F
S. LUIS POTOSI CLEAR     64  57  77 S7        30.22S
TOLUCA         LGT RAIN  54  48  82 CALM      30.40S

SOUTHERN MEXICO

CITY           SKY/WX    TMP DP  RH WIND       PRES   REMARKS
ACAPULCO       MOCLDY    79  75  89 CALM      29.95S

YUCATAN PENINSULA

CITY           SKY/WX    TMP DP  RH WIND       PRES   REMARKS
CANCUN         PTCLDY    82  77  83 E7        29.99F HX  91
COZUMEL        MOCLDY    75  75 100 CALM      29.98F
MERIDA         CLOUDY    79  79 100 SE5       29.97F
TAPACHULA        N/A    N/A N/A N/A MISG        N/A

CENTRAL AMERICA

CITY           SKY/WX    TMP DP  RH WIND       PRES   REMARKS

CARIBBEAN

CITY           SKY/WX    TMP DP  RH WIND       PRES   REMARKS
ARUBA          PTCLDY    82  75  78 E20       29.86S
CURACAO        PTCLDY    82  77  83 E12       29.89F HX  91
KINGSTON       PTCLDY    82  79  89 VRB2      29.92F HX  93
SAN JUAN       PTCLDY    81  75  83 CALM      29.99F
SANTO DOMINGO  PTCLDY    75  73  94 NE6       29.97S

$$



USA.gov is the U.S. government's official web portal to all federal, state and local government web resources and services.